SCP
0 0 0 0 0 0 0 0 0 0 0 0 0 0 0 0 0 0 0 0 0 0 0 0 0 0 0 0 0 0 -0 0 0 0 0 0 0 0 0 0 0 0 0 0 0 0 0 0 0 0 0 0 0 0
0 0 0 0 0 0 0 0 0 0 0 0 0 0 0 0 0 0 0 0 0 0 0 -0 -0 -0 -0 -0 0 0 0 0 0 0 0 0 0 0 0 0 0 0 0 0 0 0 0 0 0 0 0 -0 -0 -0
0 0 0 0 0 0 0 0 0 0 0 0 0 0 0 0 0 0 0 0 0 0 0 -0 0 0 0 0 0 0 0 0 0 -0 0 0 0 0 0 0 0 0 0 0 0 0 0 0 0 0 0 -0 -0 0
0 0 0 0 0 0 0 0 0 0 0 0 0 0 0 0 -0 0 0 0 0 -0 -0 -0 0 0 0 0 0 0 0 0 -0 0 0 0 0 0 0 0 0 0 0 0 0 0 -0 0 0 0 -0 -0 -0 -0
0 0 0 0 0 0 0 0 0 0 0 0 -0 0 -0 -0 -0 0 0 0 0 0 0 0 -0 0 0 0 0 0 0 0 0 0 0 0 0 0 0 0 0 0 0 0 0 0 0 0 0 -0 -0 -0 -0 -0
0 0 0 0 0 0 0 0 0 0 0 -0 -0 -0 -0 -0 0 0 0 0 0 0 0 -0 -0 0 0 0 0 0 0 0 0 0 0 0 0 0 0 0 0 0 -0 0 0 0 0 0 0 0 -0 0 0 -0
0 0 0 0 0 0 -0 0 0 0 0 -0 -0 -0 -0 -0 0 0 0 0 0 0 -0 -0 -0 -0 0 0 0 -0 0 0 0 0 0 0 0 0 0 0 0 0 -0 0 0 0 0 0 0 0 -0 -0 -0 -0
0 0 0 0 0 -0 0 0 0 0 0 0 -0 -0 0 0 0 0 0 0 0 0 0 -0 0 -0 0 0 0 -0 0 0 0 0 0 0 0 0 0 0 0 0 0 0 0 0 0 0 0 0 0 -0 -0 -0
0 0 0 0 -0 -0 -0 0 0 0 0 0 -0 0 0 0 0 0 0 0 0 0 -0 -0 0 -0 -0 0 0 -0 0 0 0 0 0 0 0 0 0 -0 -0 0 0 0 0 -0 -0 -0 -0 -0 -0 -0 -0 -0
0 0 0 0 -0 -0 0 0 0 0 0 0 0 0 0 0 -0 0 0 0 0 0 0 -0 -0 -0 -0 -0 0 0 0 0 0 0 0 0 0 0 0 0 0 0 0 -0 0 0 -0 -0 -0 -0 -0 -0 -0 -0
0 0 0 -0 -0 0 0 0 0 0 0 0 0 0 0 -0 0 0 0 0 -0 -0 -0 -0 0 -0 -0 0 -0 -0 0 0 0 0 0 0 0 0 0 0 0 0 0 0 0 0 0 0 0 -0 -0 -0 -0 -0
0 0 -0 -0 0 0 0 0 0 0 0 0 0 0 0 0 0 0 0 0 -0 -0 -0 -0 -0 -0 0 -0 0 0 0 0 0 0 0 0 0 0 0 0 0 0 -0 -0 -0 -0 -0 -0 -0 -0 -0 -0 -0 -0
0 -0 0 0 0 0 0 0 0 0 0 0 0 0 0 0 0 0 0 0 0 -0 -0 -0 -0 0 0 0 0 0 0 0 0 0 0 0 0 0 0 0 0 0 -0 -0 -0 -0 -0 -0 -0 -0 -0 -0 -0 -0
-0 -0 0 0 0 0 0 0 -0 0 0 0 0 0 0 0 0 0 -0 -0 -0 0 -0 -0 -0 0 0 0 0 0 0 0 0 0 0 0 0 0 0 0 0 -0 -0 -0 -0 -0 -0 -0 -0 -0 -0 -0 -0 -0
-0 0 0 0 0 0 0 -0 -0 0 0 0 0 0 0 0 0 -0 -0 -0 -0 0 -0 -0 0 0 -0 0 0 0 0 0 0 0 0 0 0 0 0 0 -0 -0 -0 -0 -0 0 0 0 -0 -0 0 0 0 0
0 0 0 0 0 0 -0 -0 0 0 0 0 0 0 0 0 0 -0 -0 -0 -0 -0 -0 -0 0 -0 0 0 0 0 0 0 0 0 0 0 0 0 0 0 -0 -0 -0 -0 -0 -0 -0 -0 -0 0 -0 -0 -0 -0
0 0 0 0 0 -0 -0 0 0 0 0 0 -0 -0 -0 0 -0 -0 -0 -0 -0 -0 0 0 0 -0 -0 0 0 0 0 0 0 0 0 0 0 0 0 0 0 0 0 -0 -0 -0 -0 0 -0 -0 -0 -0 -0 -0
0 0 0 0 0 0 0 0 0 0 0 -0 0 0 0 0 0 -0 -0 -0 -0 0 -0 0 0 0 0 0 0 0 0 0 0 0 0 0 0 0 -0 0 0 0 0 0 0 0 -0 -0 -0 -0 0 0 0 0
0 0 0 -0 -0 0 0 0 0 0 0 -0 -0 0 -0 0 0 0 -0 0 0 -0 -0 0 0 0 0 0 0 0 0 0 0 0 0 0 0 0 0 0 0 0 0 0 -0 -0 0 0 -0 0 0 0 0 0
-0 -0 -0 -0 0 0 0 0 0 0 0 0 0 0 0 -0 -0 0 -0 0 -0 -0 0 0 0 0 0 0 0 -0 0 0 0 0 0 0 0 0 -0 -0 0 -0 0 0 0 0 0 0 0 0 0 0 0 -0
-0 0 0 0 0 0 0 0 0 0 0 0 0 0 0 -0 0 0 -0 0 0 -0 -0 -0 -0 0 0 0 0 0 0 0 0 0 0 0 0 0 -0 -0 -0 0 0 0 0 0 0 0 0 0 0 0 0 0
0 0 0 0 0 0 0 0 0 0 0 0 0 0 0 0 0 0 -0 -0 -0 0 -0 -0 0 0 0 0 0 0 0 0 0 0 0 0 0 0 0 0 0 0 0 0 0 0 0 0 0 0 0 0 0 0
0 0 -0 -0 0 -0 -0 -0 0 0 0 0 0 0 0 0 0 0 -0 0 0 0 0 0 0 0 0 0 0 0 0 -0 0 0 0 0 0 0 0 0 0 0 0 0 0 0 0 0 0 0 0 0 0 0
0 -0 -0 -0 0 0 -0 0 0 0 0 0 0 0 0 0 0 0 -0 -0 0 0 0 0 0 0 0 0 0 0 0 0 0 0 0 0 0 0 0 0 0 0 0 0 0 0 0 0 0 0 0 0 0 0
0 -0 -0 0 -0 -0 0 0 0 0 0 0 0 0 0 0 0 0 0 0 0 0 0 0 0 0 0 0 0 0 0 -0 0 0 0 0 0 0 0 0 0 0 0 0 0 0 0 0 0 0 0 0 0 0
-0 0 0 -0 -0 0 0 0 0 0 0 0 0 0 0 0 0 0 0 0 -0 -0 -0 -0 -0 0 0 0 0 0 0 -0 -0 0 0 0 0 0 0 0 0 0 -0 -0 0 0 0 0 0 0 0 0 0 0
-0 -0 0 0 0 0 0 0 0 0 0 0 0 0 0 0 0 0 0 -0 -0 -0 -0 -0 -0 -0 0 0 0 0 0 -0 0 0 0 0 -0 0 -0 -0 -0 -0 0 0 0 0 0 0 0 0 0 0 0 0
-0 0 -0 0 0 0 0 0 -0 0 0 0 0 0 0 0 0 0 -0 -0 -0 -0 -0 -0 -0 0 0 0 0 0 0 0 0 0 0 0 -0 -0 -0 -0 -0 -0 -0 0 0 0 0 0 -0 -0 -0 0 0 0
0 0 0 0 0 0 0 0 0 0 0 0 0 0 0 0 0 0 0 0 0 0 0 0 0 0 0 0 -0 0 0 0 0 -0 -0 0 -0 0 -0 -0 -0 -0 -0 0 0 0 -0 -0 -0 0 0 0 0 0
0 0 0 0 0 0 0 0 0 0 0 0 0 0 0 0 0 0 0 0 0 0 0 0 0 0 0 0 0 0 0 0 0 0 0 0 0 -0 -0 0 -0 -0 0 -0 -0 -0 -0 -0 0 0 0 0 0 0
0 0 0 0 0 0 0 0 0 0 0 0 -0 -0 -0 0 0 0 0 0 0 0 0 0 0 0 0 0 0 0 0 0 0 0 -0 -0 0 0 0 0 -0 -0 -0 -0 -0 0 0 0 0 0 0 0 0 0
0 0 0 0 0 0 0 0 0 0 0 0 -0 -0 0 0 0 0 0 0 0 0 0 0 0 0 0 0 0 0 0 0 0 0 0 0 -0 -0 -0 -0 -0 -0 -0 -0 0 0 0 0 0 0 0 0 0 0
0 0 0 0 0 0 0 0 0 0 0 0 0 0 0 0 0 0 0 0 0 0 0 0 0 0 0 0 0 0 0 0 0 0 0 0 0 0 -0 -0 0 -0 -0 0 0 0 0 0 0 0 0 0 0 0
Wind_Speed_500mb
38 40 42 43 44 46 49 50 49 48 47 44 36 38 38 36 34 32 42 32 28 25 61 38 30 42 46 32 8 30 20 3 6 11 7 6 5 6 7 4 1 4 5 4 2 7 9 15 9 19 20 57 63 58
37 39 39 42 43 45 48 49 48 48 44 39 34 38 38 37 34 31 43 42 40 43 68 69 41 26 36 37 43 9 10 12 9 5 5 6 4 6 9 5 7 5 6 7 8 6 10 13 2 33 61 87 65 82
36 38 37 41 41 44 47 49 49 47 42 36 35 38 39 37 32 24 40 42 35 30 52 15 15 37 41 31 24 13 12 10 12 22 6 4 7 3 5 4 4 8 10 7 4 16 25 40 50 54 59 74 81 80
33 33 34 38 41 42 45 47 48 46 40 36 36 41 40 35 30 29 34 33 23 22 11 20 42 30 22 27 36 43 52 48 46 35 12 4 5 2 4 10 8 11 9 9 14 22 42 47 51 68 76 75 83 73
30 30 32 38 42 41 45 47 48 45 40 37 38 43 40 31 26 30 26 2 11 12 9 31 53 25 51 56 40 19 20 29 22 6 4 4 5 5 6 5 10 18 5 2 6 20 37 27 48 69 87 78 87 92
30 28 27 41 42 42 52 48 46 44 37 36 42 42 34 22 22 24 4 1 26 19 14 9 23 31 65 58 34 18 15 20 13 9 3 8 12 6 6 6 21 24 29 16 16 61 68 61 57 67 91 80 83 84
32 31 31 39 41 43 54 50 45 41 35 36 41 32 21 14 11 4 4 16 26 20 9 11 15 18 45 43 33 20 18 21 13 6 6 7 7 13 7 7 17 42 64 71 71 84 52 49 54 71 98 90 86 77
39 25 32 37 40 44 54 49 44 40 35 36 32 21 12 6 4 4 12 17 13 8 7 7 10 22 32 21 16 26 22 13 24 11 13 6 7 11 11 8 17 45 67 68 63 73 73 75 77 71 79 80 78 69
25 25 33 34 38 46 49 44 38 33 34 33 25 13 6 3 3 9 23 4 8 5 7 5 8 10 33 17 15 19 16 7 23 10 11 15 12 13 11 15 17 21 49 65 66 67 65 70 66 62 65 63 68 57
21 30 32 32 40 45 42 41 37 29 31 22 10 2 4 5 14 6 6 5 4 3 4 5 9 10 18 13 9 21 11 5 10 9 16 10 7 29 28 41 49 52 60 66 75 60 61 60 57 54 54 52 55 55
25 31 31 35 42 42 36 32 30 29 20 16 13 2 9 7 3 2 2 3 5 3 3 7 11 16 11 8 8 12 5 4 7 10 6 6 6 10 26 36 34 37 41 43 58 54 56 62 58 58 53 53 53 50
27 29 34 38 41 36 31 25 22 27 24 22 14 11 12 6 3 3 4 6 3 4 9 11 24 13 13 9 6 8 6 5 8 15 7 7 6 24 26 25 30 41 54 54 56 57 54 53 51 53 51 49 47 48
28 32 36 37 34 31 28 16 16 22 19 2 3 4 4 2 5 5 6 2 5 6 7 21 14 7 9 7 7 5 9 7 7 6 5 4 9 20 24 26 37 45 53 58 56 54 52 50 47 50 52 48 48 46
30 34 34 29 28 26 14 10 15 16 5 1 2 6 3 2 2 1 2 5 6 13 22 25 11 6 5 6 4 7 7 3 4 5 5 5 23 18 27 30 41 44 50 56 53 49 49 46 45 43 45 45 47 46
30 31 26 23 13 14 16 15 14 9 5 3 4 3 3 2 3 7 11 12 10 16 19 11 7 4 4 4 5 5 5 6 5 2 3 21 19 27 32 44 36 44 48 50 49 46 46 45 46 44 42 43 43 41
29 23 14 12 13 20 16 8 7 10 3 4 7 4 4 1 1 4 7 10 11 17 18 3 3 3 4 4 2 6 3 4 3 4 17 8 17 27 34 39 39 46 50 49 45 43 44 46 47 46 44 40 36 33
19 10 11 17 18 13 6 13 9 5 6 5 5 10 12 10 9 6 5 10 13 11 4 4 5 7 5 3 3 3 3 2 15 26 3 23 27 33 35 36 40 46 45 36 43 39 42 47 43 41 39 35 30 28
7 7 12 13 10 6 12 11 6 5 6 8 6 2 5 9 12 11 10 3 8 5 5 3 4 3 2 3 2 3 6 16 10 9 21 32 37 42 41 37 45 47 40 42 40 40 41 40 35 29 28 27 25 23
13 9 9 9 6 5 5 7 4 5 8 8 10 11 8 7 7 10 9 11 7 5 4 2 3 2 3 3 3 1 6 18 15 16 25 38 38 33 30 39 45 41 43 42 40 36 34 31 27 24 21 20 20 23
10 5 3 1 9 2 0 3 5 5 5 3 7 7 6 4 3 4 5 4 6 3 2 1 1 4 5 10 11 4 4 7 11 27 24 31 31 31 36 37 37 35 35 34 32 31 29 27 26 22 20 23 28 28
6 4 2 8 4 3 3 4 7 6 6 5 7 5 4 6 9 5 8 9 3 2 2 3 6 10 8 8 12 15 11 14 12 11 20 29 30 33 33 31 30 31 32 32 33 32 29 28 26 29 31 29 28 27
9 5 5 4 3 4 6 9 6 5 5 6 7 4 5 4 4 4 13 5 2 1 4 0 6 9 9 5 2 7 16 24 25 13 17 27 35 32 33 37 41 39 33 32 32 30 27 27 32 32 28 24 21 17
7 7 4 4 3 5 4 4 4 4 4 2 3 4 4 3 3 15 4 5 6 2 3 3 8 4 6 9 12 16 23 28 23 18 24 28 32 31 36 44 35 32 32 30 25 26 30 32 29 24 21 19 17 19
7 5 4 4 5 6 4 5 5 3 3 3 3 2 4 5 10 3 3 3 7 8 7 11 7 7 6 6 11 19 22 22 26 24 21 22 32 40 39 32 35 36 30 30 28 31 30 26 23 21 19 17 14 17
4 6 5 7 8 5 4 2 1 1 2 2 3 1 3 6 2 3 2 1 7 5 5 3 3 10 8 6 12 14 18 19 17 16 26 29 36 47 33 26 23 23 31 30 30 28 26 23 18 17 18 18 14 15
4 6 8 5 5 4 1 2 1 3 3 3 2 2 1 2 2 4 3 4 5 5 2 4 5 8 10 6 8 19 22 24 21 15 17 24 33 36 34 33 27 20 30 31 28 26 24 22 21 19 19 18 17 17
4 5 7 9 4 4 4 4 6 6 3 1 2 1 2 2 4 3 7 9 12 13 12 7 6 8 11 11 4 7 15 22 29 24 23 26 28 29 29 26 21 21 21 23 24 24 23 21 17 17 21 20 19 18
8 5 4 1 4 6 3 2 3 2 1 3 4 1 3 5 3 5 8 12 12 14 15 14 9 4 9 10 15 12 6 17 17 17 17 22 27 20 28 26 21 20 20 16 16 18 15 22 22 20 23 23 24 17
6 6 5 4 3 4 5 3 2 5 3 1 2 3 4 4 9 11 9 2 4 4 5 7 14 13 10 17 15 15 17 15 11 16 24 30 38 32 27 26 24 21 24 19 20 24 24 21 22 21 23 26 26 23
5 12 4 3 3 2 1 4 2 6 6 8 7 4 2 3 6 8 8 9 10 6 6 10 12 17 13 12 20 26 29 25 21 17 20 21 23 24 29 30 24 19 17 17 19 23 23 24 24 23 23 26 29 30
1 9 4 3 4 2 2 1 6 4 4 4 6 5 2 3 5 8 7 7 10 11 11 10 10 8 9 11 24 20 9 29 26 19 12 7 9 19 19 17 20 24 25 22 22 21 21 24 28 31 31 30 28 28
9 9 3 2 2 3 3 7 6 6 6 5 3 2 2 3 5 5 2 2 3 5 6 7 9 6 7 13 23 21 11 12 22 17 11 7 9 13 17 20 22 23 22 21 21 22 23 21 20 21 23 26 24 24
5 5 6 3 4 2 2 5 4 2 4 4 6 7 4 3 3 5 0 2 4 4 5 5 6 4 8 8 35 32 10 4 13 18 18 12 12 9 10 14 16 16 16 17 6 11 17 15 17 24 21 17 16 17
Wind_Direction_500mb
298 302 310 317 324 328 331 332 332 336 338 341 340 337 341 340 335 328 313 327 316 285 291 288 290 286 286 285 280 303 327 5 303 352 345 347 318 336 297 351 184 201 117 45 41 102 113 13 171 194 111 125 130 128
290 297 308 315 320 326 327 329 333 336 335 338 337 336 337 333 330 326 314 322 314 292 279 304 306 291 269 282 271 276 255 281 266 327 328 309 304 303 317 323 256 71 35 115 37 31 7 12 70 123 134 133 129 122
283 294 307 308 316 322 325 330 333 333 334 334 335 335 334 330 326 319 310 315 322 290 311 302 311 328 315 301 285 254 270 255 284 298 283 285 274 296 309 319 340 74 31 71 166 31 65 80 92 107 120 122 126 129
274 287 297 305 313 317 324 327 329 330 331 331 331 331 331 324 318 322 310 309 308 292 292 291 320 339 318 315 306 285 279 291 285 271 241 258 268 294 286 308 42 10 21 85 84 101 78 67 98 112 111 115 115 118
273 288 298 308 306 312 322 324 327 329 330 329 330 329 326 317 317 320 317 262 340 295 278 291 313 344 350 340 337 277 262 290 285 240 222 237 261 238 228 27 23 329 118 68 67 82 100 88 103 114 109 113 118 118
268 281 294 293 304 318 317 321 324 328 329 327 329 328 322 308 319 331 353 41 348 308 307 298 307 315 348 350 346 329 309 314 314 308 332 250 248 252 56 64 345 34 79 116 97 95 93 99 99 111 116 114 118 121
254 270 282 297 305 318 315 319 325 329 326 328 329 326 324 303 307 329 325 318 327 324 280 293 298 306 336 347 342 345 355 345 332 312 270 279 359 74 42 64 44 81 89 97 106 108 77 95 99 106 119 119 118 114
263 262 281 292 304 318 314 318 325 329 327 329 324 320 319 324 309 247 309 330 338 321 287 301 292 317 345 331 327 343 335 349 2 339 347 349 53 67 55 50 98 94 88 88 99 107 111 110 109 105 112 116 110 109
257 265 279 292 311 313 310 316 325 330 331 329 323 309 294 273 348 295 310 349 317 298 305 308 321 319 330 322 322 334 345 17 339 358 9 15 22 47 36 65 75 78 104 108 102 106 109 104 105 109 112 110 110 112
256 269 282 307 315 308 310 320 326 334 339 332 327 332 240 295 323 338 33 307 340 299 307 283 299 306 322 324 315 347 13 34 353 15 2 36 41 39 50 76 92 102 109 119 113 110 110 108 112 112 112 114 116 118
247 271 293 311 306 305 312 324 325 340 353 356 352 343 312 329 351 323 317 5 355 336 297 288 296 311 317 315 317 355 331 333 16 358 33 43 36 52 80 77 97 111 122 118 116 118 120 121 122 120 117 117 116 117
268 291 303 302 299 303 314 320 322 338 346 335 330 346 338 14 344 23 11 346 338 340 322 305 327 301 303 314 297 359 349 346 38 325 27 30 80 94 91 79 98 115 115 111 114 115 117 117 119 118 118 117 117 116
280 293 295 295 296 306 311 307 315 321 332 332 346 311 314 358 42 60 359 13 336 322 306 332 326 323 317 334 300 332 10 48 307 36 38 73 114 113 117 112 115 120 120 118 116 117 120 119 121 123 123 122 120 116
285 287 290 293 301 310 305 301 306 320 311 233 249 313 186 146 118 201 273 275 296 280 317 322 307 323 331 328 328 341 15 346 70 48 33 355 128 142 129 129 126 126 126 125 122 120 118 120 120 120 122 125 123 113
285 289 295 299 288 303 311 296 289 269 242 211 223 249 200 159 262 268 285 295 299 300 325 315 279 301 326 325 10 331 20 57 26 46 348 352 126 153 152 142 142 140 134 129 126 121 122 124 122 123 125 126 122 114
288 301 296 286 297 311 304 285 224 185 231 233 230 258 198 131 348 298 285 292 322 323 322 294 301 319 48 337 33 48 12 33 343 297 314 6 144 156 154 154 157 150 143 137 134 128 128 129 125 125 128 127 127 121
302 314 288 293 304 299 263 162 181 216 228 228 245 247 249 276 260 259 251 338 330 325 355 321 325 34 292 342 75 34 49 354 287 302 310 167 166 149 144 153 154 152 139 146 140 134 134 136 133 131 136 141 139 132
314 296 295 295 305 161 164 177 193 238 242 247 249 256 214 263 277 282 256 265 332 335 329 15 312 344 19 33 42 83 30 340 16 146 141 158 157 145 143 136 142 149 159 156 149 144 141 145 146 148 149 150 146 142
316 304 281 269 238 185 177 184 208 250 240 258 267 268 267 290 329 329 273 277 258 258 327 272 286 328 61 81 113 122 36 352 9 116 144 162 161 158 156 148 155 156 156 156 152 147 150 155 155 154 151 153 158 160
318 114 70 279 142 148 284 197 225 263 262 249 257 261 249 249 2 272 284 251 184 150 47 4 261 291 288 279 274 285 39 349 77 130 131 153 168 164 162 157 158 156 156 155 155 153 155 157 155 152 150 147 143 144
164 159 26 137 130 184 223 230 221 248 279 260 275 277 248 226 227 230 200 154 111 140 180 277 276 313 314 294 254 231 211 162 143 119 162 154 163 168 171 172 166 162 162 165 167 165 166 165 156 151 146 138 136 131
162 156 149 183 224 222 256 233 237 259 260 271 290 242 245 224 211 178 149 98 166 124 178 150 342 335 41 47 101 157 164 155 167 162 141 155 154 164 165 165 162 161 167 172 170 170 171 167 160 154 153 155 156 155
151 175 203 228 256 241 260 236 257 226 249 250 283 249 218 158 120 151 96 134 152 207 50 297 273 303 70 70 89 129 147 156 153 148 154 151 151 153 161 152 162 173 167 168 167 168 166 166 169 169 175 186 196 201
156 173 233 231 229 262 263 232 224 250 261 247 245 252 133 100 175 179 108 139 166 178 279 271 248 183 129 101 96 122 136 140 156 169 173 177 168 164 153 159 168 173 185 171 170 171 171 177 188 199 210 218 230 235
194 203 216 230 242 260 248 192 213 223 266 243 288 359 113 158 132 84 82 132 209 262 315 230 199 188 186 155 162 145 149 165 163 165 177 166 167 172 163 163 185 196 188 183 183 183 188 195 199 202 200 201 209 197
207 211 205 229 182 213 111 154 269 288 316 256 234 341 156 155 140 73 72 72 54 25 353 197 190 182 178 172 181 191 188 178 179 165 162 172 183 190 186 184 192 195 196 197 196 198 203 208 209 204 199 199 197 198
245 252 236 231 232 248 241 173 235 253 269 259 9 285 198 158 86 89 107 87 78 58 64 59 188 201 190 189 141 174 213 216 217 221 205 186 183 187 189 190 186 189 197 204 211 217 222 217 203 218 214 210 211 222
236 259 217 131 248 230 279 243 194 161 206 304 280 69 47 35 95 131 129 127 100 75 62 50 41 238 249 219 221 217 275 206 198 209 196 182 197 198 201 206 216 214 223 232 237 219 230 212 215 236 225 221 221 225
239 233 238 257 242 227 234 242 105 133 224 319 47 57 62 87 124 134 142 176 280 293 316 3 352 347 288 241 222 209 213 208 211 190 191 191 196 198 195 205 222 238 250 232 212 198 216 218 220 232 233 232 233 239
244 196 217 253 246 247 183 141 96 145 136 85 78 57 22 220 220 226 246 266 274 262 282 319 336 328 321 224 209 202 214 198 176 156 156 164 194 211 225 229 224 186 175 183 198 206 215 209 213 221 228 234 242 246
196 181 224 242 270 264 162 19 164 166 166 129 38 30 345 249 262 283 301 276 278 281 287 297 306 296 311 173 176 177 192 195 198 202 201 231 238 207 188 192 192 191 190 196 207 213 220 228 234 236 239 235 222 209
190 205 205 270 273 324 332 186 201 196 199 174 143 290 251 240 208 209 357 331 299 301 303 308 313 275 229 184 167 170 167 213 209 212 210 179 151 172 196 203 204 210 216 224 230 235 239 243 239 228 216 193 210 239
202 200 200 259 270 281 221 190 184 199 210 239 244 207 202 199 153 191 202 333 317 308 305 327 352 351 202 213 188 191 200 151 169 176 194 206 178 171 179 179 179 178 170 159 190 278 276 257 200 185 209 231 194 192
Wind_Speed_850mb
38 40 42 43 44 46 49 50 49 48 47 44 36 38 38 36 34 32 42 32 28 25 61 38 30 42 46 32 8 30 20 3 6 11 7 6 5 6 7 4 1 4 5 4 2 7 9 15 9 19 20 57 63 58
37 39 39 42 43 45 48 49 48 48 44 39 34 38 38 37 34 31 43 42 40 43 68 69 41 26 36 37 43 9 10 12 9 5 5 6 4 6 9 5 7 5 6 7 8 6 10 13 2 33 61 87 65 82
36 38 37 41 41 44 47 49 49 47 42 36 35 38 39 37 32 24 40 42 35 30 52 15 15 37 41 31 24 13 12 10 12 22 6 4 7 3 5 4 4 8 10 7 4 16 25 40 50 54 59 74 81 80
33 33 34 38 41 42 45 47 48 46 40 36 36 41 40 35 30 29 34 33 23 22 11 20 42 30 22 27 36 43 52 48 46 35 12 4 5 2 4 10 8 11 9 9 14 22 42 47 51 68 76 75 83 73
30 30 32 38 42 41 45 47 48 45 40 37 38 43 40 31 26 30 26 2 11 12 9 31 53 25 51 56 40 19 20 29 22 6 4 4 5 5 6 5 10 18 5 2 6 20 37 27 48 69 87 78 87 92
30 28 27 41 42 42 52 48 46 44 37 36 42 42 34 22 22 24 4 1 26 19 14 9 23 31 65 58 34 18 15 20 13 9 3 8 12 6 6 6 21 24 29 16 16 61 68 61 57 67 91 80 83 84
32 31 31 39 41 43 54 50 45 41 35 36 41 32 21 14 11 4 4 16 26 20 9 11 15 18 45 43 33 20 18 21 13 6 6 7 7 13 7 7 17 42 64 71 71 84 52 49 54 71 98 90 86 77
39 25 32 37 40 44 54 49 44 40 35 36 32 21 12 6 4 4 12 17 13 8 7 7 10 22 32 21 16 26 22 13 24 11 13 6 7 11 11 8 17 45 67 68 63 73 73 75 77 71 79 80 78 69
25 25 33 34 38 46 49 44 38 33 34 33 25 13 6 3 3 9 23 4 8 5 7 5 8 10 33 17 15 19 16 7 23 10 11 15 12 13 11 15 17 21 49 65 66 67 65 70 66 62 65 63 68 57
21 30 32 32 40 45 42 41 37 29 31 22 10 2 4 5 14 6 6 5 4 3 4 5 9 10 18 13 9 21 11 5 10 9 16 10 7 29 28 41 49 52 60 66 75 60 61 60 57 54 54 52 55 55
25 31 31 35 42 42 36 32 30 29 20 16 13 2 9 7 3 2 2 3 5 3 3 7 11 16 11 8 8 12 5 4 7 10 6 6 6 10 26 36 34 37 41 43 58 54 56 62 58 58 53 53 53 50
27 29 34 38 41 36 31 25 22 27 24 22 14 11 12 6 3 3 4 6 3 4 9 11 24 13 13 9 6 8 6 5 8 15 7 7 6 24 26 25 30 41 54 54 56 57 54 53 51 53 51 49 47 48
28 32 36 37 34 31 28 16 16 22 19 2 3 4 4 2 5 5 6 2 5 6 7 21 14 7 9 7 7 5 9 7 7 6 5 4 9 20 24 26 37 45 53 58 56 54 52 50 47 50 52 48 48 46
30 34 34 29 28 26 14 10 15 16 5 1 2 6 3 2 2 1 2 5 6 13 22 25 11 6 5 6 4 7 7 3 4 5 5 5 23 18 27 30 41 44 50 56 53 49 49 46 45 43 45 45 47 46
30 31 26 23 13 14 16 15 14 9 5 3 4 3 3 2 3 7 11 12 10 16 19 11 7 4 4 4 5 5 5 6 5 2 3 21 19 27 32 44 36 44 48 50 49 46 46 45 46 44 42 43 43 41
29 23 14 12 13 20 16 8 7 10 3 4 7 4 4 1 1 4 7 10 11 17 18 3 3 3 4 4 2 6 3 4 3 4 17 8 17 27 34 39 39 46 50 49 45 43 44 46 47 46 44 40 36 33
19 10 11 17 18 13 6 13 9 5 6 5 5 10 12 10 9 6 5 10 13 11 4 4 5 7 5 3 3 3 3 2 15 26 3 23 27 33 35 36 40 46 45 36 43 39 42 47 43 41 39 35 30 28
7 7 12 13 10 6 12 11 6 5 6 8 6 2 5 9 12 11 10 3 8 5 5 3 4 3 2 3 2 3 6 16 10 9 21 32 37 42 41 37 45 47 40 42 40 40 41 40 35 29 28 27 25 23
13 9 9 9 6 5 5 7 4 5 8 8 10 11 8 7 7 10 9 11 7 5 4 2 3 2 3 3 3 1 6 18 15 16 25 38 38 33 30 39 45 41 43 42 40 36 34 31 27 24 21 20 20 23
10 5 3 1 9 2 0 3 5 5 5 3 7 7 6 4 3 4 5 4 6 3 2 1 1 4 5 10 11 4 4 7 11 27 24 31 31 31 36 37 37 35 35 34 32 31 29 27 26 22 20 23 28 28
6 4 2 8 4 3 3 4 7 6 6 5 7 5 4 6 9 5 8 9 3 2 2 3 6 10 8 8 12 15 11 14 12 11 20 29 30 33 33 31 30 31 32 32 33 32 29 28 26 29 31 29 28 27
9 5 5 4 3 4 6 9 6 5 5 6 7 4 5 4 4 4 13 5 2 1 4 0 6 9 9 5 2 7 16 24 25 13 17 27 35 32 33 37 41 39 33 32 32 30 27 27 32 32 28 24 21 17
7 7 4 4 3 5 4 4 4 4 4 2 3 4 4 3 3 15 4 5 6 2 3 3 8 4 6 9 12 16 23 28 23 18 24 28 32 31 36 44 35 32 32 30 25 26 30 32 29 24 21 19 17 19
7 5 4 4 5 6 4 5 5 3 3 3 3 2 4 5 10 3 3 3 7 8 7 11 7 7 6 6 11 19 22 22 26 24 21 22 32 40 39 32 35 36 30 30 28 31 30 26 23 21 19 17 14 17
4 6 5 7 8 5 4 2 1 1 2 2 3 1 3 6 2 3 2 1 7 5 5 3 3 10 8 6 12 14 18 19 17 16 26 29 36 47 33 26 23 23 31 30 30 28 26 23 18 17 18 18 14 15
4 6 8 5 5 4 1 2 1 3 3 3 2 2 1 2 2 4 3 4 5 5 2 4 5 8 10 6 8 19 22 24 21 15 17 24 33 36 34 33 27 20 30 31 28 26 24 22 21 19 19 18 17 17
4 5 7 9 4 4 4 4 6 6 3 1 2 1 2 2 4 3 7 9 12 13 12 7 6 8 11 11 4 7 15 22 29 24 23 26 28 29 29 26 21 21 21 23 24 24 23 21 17 17 21 20 19 18
8 5 4 1 4 6 3 2 3 2 1 3 4 1 3 5 3 5 8 12 12 14 15 14 9 4 9 10 15 12 6 17 17 17 17 22 27 20 28 26 21 20 20 16 16 18 15 22 22 20 23 23 24 17
6 6 5 4 3 4 5 3 2 5 3 1 2 3 4 4 9 11 9 2 4 4 5 7 14 13 10 17 15 15 17 15 11 16 24 30 38 32 27 26 24 21 24 19 20 24 24 21 22 21 23 26 26 23
5 12 4 3 3 2 1 4 2 6 6 8 7 4 2 3 6 8 8 9 10 6 6 10 12 17 13 12 20 26 29 25 21 17 20 21 23 24 29 30 24 19 17 17 19 23 23 24 24 23 23 26 29 30
1 9 4 3 4 2 2 1 6 4 4 4 6 5 2 3 5 8 7 7 10 11 11 10 10 8 9 11 24 20 9 29 26 19 12 7 9 19 19 17 20 24 25 22 22 21 21 24 28 31 31 30 28 28
9 9 3 2 2 3 3 7 6 6 6 5 3 2 2 3 5 5 2 2 3 5 6 7 9 6 7 13 23 21 11 12 22 17 11 7 9 13 17 20 22 23 22 21 21 22 23 21 20 21 23 26 24 24
5 5 6 3 4 2 2 5 4 2 4 4 6 7 4 3 3 5 0 2 4 4 5 5 6 4 8 8 35 32 10 4 13 18 18 12 12 9 10 14 16 16 16 17 6 11 17 15 17 24 21 17 16 17
Wind_Direction_850mb
298 302 310 317 324 328 331 332 332 336 338 341 340 337 341 340 335 328 313 327 316 285 291 288 290 286 286 285 280 303 327 5 303 352 345 347 318 336 297 351 184 201 117 45 41 102 113 13 171 194 111 125 130 128
290 297 308 315 320 326 327 329 333 336 335 338 337 336 337 333 330 326 314 322 314 292 279 304 306 291 269 282 271 276 255 281 266 327 328 309 304 303 317 323 256 71 35 115 37 31 7 12 70 123 134 133 129 122
283 294 307 308 316 322 325 330 333 333 334 334 335 335 334 330 326 319 310 315 322 290 311 302 311 328 315 301 285 254 270 255 284 298 283 285 274 296 309 319 340 74 31 71 166 31 65 80 92 107 120 122 126 129
274 287 297 305 313 317 324 327 329 330 331 331 331 331 331 324 318 322 310 309 308 292 292 291 320 339 318 315 306 285 279 291 285 271 241 258 268 294 286 308 42 10 21 85 84 101 78 67 98 112 111 115 115 118
273 288 298 308 306 312 322 324 327 329 330 329 330 329 326 317 317 320 317 262 340 295 278 291 313 344 350 340 337 277 262 290 285 240 222 237 261 238 228 27 23 329 118 68 67 82 100 88 103 114 109 113 118 118
268 281 294 293 304 318 317 321 324 328 329 327 329 328 322 308 319 331 353 41 348 308 307 298 307 315 348 350 346 329 309 314 314 308 332 250 248 252 56 64 345 34 79 116 97 95 93 99 99 111 116 114 118 121
254 270 282 297 305 318 315 319 325 329 326 328 329 326 324 303 307 329 325 318 327 324 280 293 298 306 336 347 342 345 355 345 332 312 270 279 359 74 42 64 44 81 89 97 106 108 77 95 99 106 119 119 118 114
263 262 281 292 304 318 314 318 325 329 327 329 324 320 319 324 309 247 309 330 338 321 287 301 292 317 345 331 327 343 335 349 2 339 347 349 53 67 55 50 98 94 88 88 99 107 111 110 109 105 112 116 110 109
257 265 279 292 311 313 310 316 325 330 331 329 323 309 294 273 348 295 310 349 317 298 305 308 321 319 330 322 322 334 345 17 339 358 9 15 22 47 36 65 75 78 104 108 102 106 109 104 105 109 112 110 110 112
256 269 282 307 315 308 310 320 326 334 339 332 327 332 240 295 323 338 33 307 340 299 307 283 299 306 322 324 315 347 13 34 353 15 2 36 41 39 50 76 92 102 109 119 113 110 110 108 112 112 112 114 116 118
247 271 293 311 306 305 312 324 325 340 353 356 352 343 312 329 351 323 317 5 355 336 297 288 296 311 317 315 317 355 331 333 16 358 33 43 36 52 80 77 97 111 122 118 116 118 120 121 122 120 117 117 116 117
268 291 303 302 299 303 314 320 322 338 346 335 330 346 338 14 344 23 11 346 338 340 322 305 327 301 303 314 297 359 349 346 38 325 27 30 80 94 91 79 98 115 115 111 114 115 117 117 119 118 118 117 117 116
280 293 295 295 296 306 311 307 315 321 332 332 346 311 314 358 42 60 359 13 336 322 306 332 326 323 317 334 300 332 10 48 307 36 38 73 114 113 117 112 115 120 120 118 116 117 120 119 121 123 123 122 120 116
285 287 290 293 301 310 305 301 306 320 311 233 249 313 186 146 118 201 273 275 296 280 317 322 307 323 331 328 328 341 15 346 70 48 33 355 128 142 129 129 126 126 126 125 122 120 118 120 120 120 122 125 123 113
285 289 295 299 288 303 311 296 289 269 242 211 223 249 200 159 262 268 285 295 299 300 325 315 279 301 326 325 10 331 20 57 26 46 348 352 126 153 152 142 142 140 134 129 126 121 122 124 122 123 125 126 122 114
288 301 296 286 297 311 304 285 224 185 231 233 230 258 198 131 348 298 285 292 322 323 322 294 301 319 48 337 33 48 12 33 343 297 314 6 144 156 154 154 157 150 143 137 134 128 128 129 125 125 128 127 127 121
302 314 288 293 304 299 263 162 181 216 228 228 245 247 249 276 260 259 251 338 330 325 355 321 325 34 292 342 75 34 49 354 287 302 310 167 166 149 144 153 154 152 139 146 140 134 134 136 133 131 136 141 139 132
314 296 295 295 305 161 164 177 193 238 242 247 249 256 214 263 277 282 256 265 332 335 329 15 312 344 19 33 42 83 30 340 16 146 141 158 157 145 143 136 142 149 159 156 149 144 141 145 146 148 149 150 146 142
316 304 281 269 238 185 177 184 208 250 240 258 267 268 267 290 329 329 273 277 258 258 327 272 286 328 61 81 113 122 36 352 9 116 144 162 161 158 156 148 155 156 156 156 152 147 150 155 155 154 151 153 158 160
318 114 70 279 142 148 284 197 225 263 262 249 257 261 249 249 2 272 284 251 184 150 47 4 261 291 288 279 274 285 39 349 77 130 131 153 168 164 162 157 158 156 156 155 155 153 155 157 155 152 150 147 143 144
164 159 26 137 130 184 223 230 221 248 279 260 275 277 248 226 227 230 200 154 111 140 180 277 276 313 314 294 254 231 211 162 143 119 162 154 163 168 171 172 166 162 162 165 167 165 166 165 156 151 146 138 136 131
162 156 149 183 224 222 256 233 237 259 260 271 290 242 245 224 211 178 149 98 166 124 178 150 342 335 41 47 101 157 164 155 167 162 141 155 154 164 165 165 162 161 167 172 170 170 171 167 160 154 153 155 156 155
151 175 203 228 256 241 260 236 257 226 249 250 283 249 218 158 120 151 96 134 152 207 50 297 273 303 70 70 89 129 147 156 153 148 154 151 151 153 161 152 162 173 167 168 167 168 166 166 169 169 175 186 196 201
156 173 233 231 229 262 263 232 224 250 261 247 245 252 133 100 175 179 108 139 166 178 279 271 248 183 129 101 96 122 136 140 156 169 173 177 168 164 153 159 168 173 185 171 170 171 171 177 188 199 210 218 230 235
194 203 216 230 242 260 248 192 213 223 266 243 288 359 113 158 132 84 82 132 209 262 315 230 199 188 186 155 162 145 149 165 163 165 177 166 167 172 163 163 185 196 188 183 183 183 188 195 199 202 200 201 209 197
207 211 205 229 182 213 111 154 269 288 316 256 234 341 156 155 140 73 72 72 54 25 353 197 190 182 178 172 181 191 188 178 179 165 162 172 183 190 186 184 192 195 196 197 196 198 203 208 209 204 199 199 197 198
245 252 236 231 232 248 241 173 235 253 269 259 9 285 198 158 86 89 107 87 78 58 64 59 188 201 190 189 141 174 213 216 217 221 205 186 183 187 189 190 186 189 197 204 211 217 222 217 203 218 214 210 211 222
236 259 217 131 248 230 279 243 194 161 206 304 280 69 47 35 95 131 129 127 100 75 62 50 41 238 249 219 221 217 275 206 198 209 196 182 197 198 201 206 216 214 223 232 237 219 230 212 215 236 225 221 221 225
239 233 238 257 242 227 234 242 105 133 224 319 47 57 62 87 124 134 142 176 280 293 316 3 352 347 288 241 222 209 213 208 211 190 191 191 196 198 195 205 222 238 250 232 212 198 216 218 220 232 233 232 233 239
244 196 217 253 246 247 183 141 96 145 136 85 78 57 22 220 220 226 246 266 274 262 282 319 336 328 321 224 209 202 214 198 176 156 156 164 194 211 225 229 224 186 175 183 198 206 215 209 213 221 228 234 242 246
196 181 224 242 270 264 162 19 164 166 166 129 38 30 345 249 262 283 301 276 278 281 287 297 306 296 311 173 176 177 192 195 198 202 201 231 238 207 188 192 192 191 190 196 207 213 220 228 234 236 239 235 222 209
190 205 205 270 273 324 332 186 201 196 199 174 143 290 251 240 208 209 357 331 299 301 303 308 313 275 229 184 167 170 167 213 209 212 210 179 151 172 196 203 204 210 216 224 230 235 239 243 239 228 216 193 210 239
202 200 200 259 270 281 221 190 184 199 210 239 244 207 202 199 153 191 202 333 317 308 305 327 352 351 202 213 188 191 200 151 169 176 194 206 178 171 179 179 179 178 170 159 190 278 276 257 200 185 209 231 194 192